Data supplied by UK-AIR on 5/4/2008
All Data GMT hour ending 
Status: R =Ratified P=Provisional,P*=As supplied
,,London Bridge Place,,,,,,,,,,,,,,,,,,,,,,,
Date,time,"Carbon monoxide",status,unit,"Nitric oxide",status,unit,"Nitrogen dioxide",status,unit,"Nitrogen oxides as nitrogen dioxide",status,unit,"Ozone",status,unit,"Sulphur dioxide",status,unit
 
01-01-1994,01:00,,,,,,,,,,,,,,,,,,
01-01-1994,02:00,1.0,R,mgm-3,33,R,ugm-3,69,R,ugm-3,118,R,ugm-3,8,R,ugm-3,19,R,ugm-3
01-01-1994,03:00,1.0,R,mgm-3,36,R,ugm-3,63,R,ugm-3,118,R,ugm-3,6,R,ugm-3,19,R,ugm-3
01-01-1994,04:00,1.2,R,mgm-3,35,R,ugm-3,65,R,ugm-3,118,R,ugm-3,4,R,ugm-3,21,R,ugm-3
01-01-1994,05:00,1.0,R,mgm-3,44,R,ugm-3,65,R,ugm-3,132,R,ugm-3,2,R,ugm-3,21,R,ugm-3
01-01-1994,06:00,0.9,R,mgm-3,38,R,ugm-3,61,R,ugm-3,118,R,ugm-3,2,R,ugm-3,16,R,ugm-3
01-01-1994,07:00,0.9,R,mgm-3,38,R,ugm-3,59,R,ugm-3,117,R,ugm-3,4,R,ugm-3,11,R,ugm-3
01-01-1994,08:00,0.8,R,mgm-3,35,R,ugm-3,61,R,ugm-3,115,R,ugm-3,6,R,ugm-3,8,R,ugm-3
01-01-1994,09:00,1.0,R,mgm-3,44,R,ugm-3,63,R,ugm-3,130,R,ugm-3,4,R,ugm-3,11,R,ugm-3
01-01-1994,10:00,0.9,R,mgm-3,46,R,ugm-3,57,R,ugm-3,128,R,ugm-3,8,R,ugm-3,11,R,ugm-3
01-01-1994,11:00,0.9,R,mgm-3,45,R,ugm-3,55,R,ugm-3,124,R,ugm-3,12,R,ugm-3,11,R,ugm-3
01-01-1994,12:00,1.2,R,mgm-3,48,R,ugm-3,57,R,ugm-3,130,R,ugm-3,14,R,ugm-3,13,R,ugm-3
01-01-1994,13:00,1.2,R,mgm-3,46,R,ugm-3,63,R,ugm-3,134,R,ugm-3,12,R,ugm-3,13,R,ugm-3
01-01-1994,14:00,1.2,R,mgm-3,53,R,ugm-3,67,R,ugm-3,147,R,ugm-3,12,R,ugm-3,16,R,ugm-3
01-01-1994,15:00,1.5,R,mgm-3,63,R,ugm-3,76,R,ugm-3,172,R,ugm-3,8,R,ugm-3,16,R,ugm-3
01-01-1994,16:00,1.5,R,mgm-3,75,R,ugm-3,80,R,ugm-3,195,R,ugm-3,4,R,ugm-3,13,R,ugm-3
01-01-1994,17:00,1.5,R,mgm-3,71,R,ugm-3,78,R,ugm-3,187,R,ugm-3,4,R,ugm-3,13,R,ugm-3
01-01-1994,18:00,2.0,R,mgm-3,104,R,ugm-3,84,R,ugm-3,243,R,ugm-3,4,R,ugm-3,19,R,ugm-3
01-01-1994,19:00,1.5,R,mgm-3,64,R,ugm-3,84,R,ugm-3,181,R,ugm-3,6,R,ugm-3,11,R,ugm-3
01-01-1994,20:00,0.9,R,mgm-3,25,R,ugm-3,71,R,ugm-3,109,R,ugm-3,10,R,ugm-3,8,R,ugm-3
01-01-1994,21:00,0.8,R,mgm-3,18,R,ugm-3,63,R,ugm-3,90,R,ugm-3,14,R,ugm-3,5,R,ugm-3
01-01-1994,22:00,0.7,R,mgm-3,20,R,ugm-3,50,R,ugm-3,80,R,ugm-3,24,R,ugm-3,5,R,ugm-3
01-01-1994,23:00,0.6,R,mgm-3,49,R,ugm-3,59,R,ugm-3,134,R,ugm-3,28,R,ugm-3,5,R,ugm-3
01-01-1994,24:00,0.3,R,mgm-3,10,R,ugm-3,25,R,ugm-3,40,R,ugm-3,46,R,ugm-3,3,R,ugm-3
02-01-1994,01:00,0.3,R,mgm-3,3,R,ugm-3,17,R,ugm-3,21,R,ugm-3,46,R,ugm-3,0,R,ugm-3
02-01-1994,02:00,0.6,R,mgm-3,1,R,ugm-3,13,R,ugm-3,15,R,ugm-3,44,R,ugm-3,0,R,ugm-3
02-01-1994,03:00,0.7,R,mgm-3,3,R,ugm-3,27,R,ugm-3,31,R,ugm-3,34,R,ugm-3,3,R,ugm-3
02-01-1994,04:00,0.6,R,mgm-3,4,R,ugm-3,36,R,ugm-3,42,R,ugm-3,20,R,ugm-3,5,R,ugm-3
02-01-1994,05:00,0.6,R,mgm-3,1,R,ugm-3,13,R,ugm-3,15,R,ugm-3,46,R,ugm-3,3,R,ugm-3
02-01-1994,06:00,0.6,R,mgm-3,1,R,ugm-3,13,R,ugm-3,15,R,ugm-3,50,R,ugm-3,3,R,ugm-3
02-01-1994,07:00,0.5,R,mgm-3,3,R,ugm-3,19,R,ugm-3,23,R,ugm-3,48,R,ugm-3,3,R,ugm-3
02-01-1994,08:00,0.6,R,mgm-3,4,R,ugm-3,32,R,ugm-3,38,R,ugm-3,46,R,ugm-3,3,R,ugm-3
02-01-1994,09:00,0.6,R,mgm-3,6,R,ugm-3,32,R,ugm-3,42,R,ugm-3,44,R,ugm-3,5,R,ugm-3
02-01-1994,10:00,0.7,R,mgm-3,9,R,ugm-3,36,R,ugm-3,50,R,ugm-3,42,R,ugm-3,5,R,ugm-3
02-01-1994,11:00,0.8,R,mgm-3,11,R,ugm-3,38,R,ugm-3,55,R,ugm-3,38,R,ugm-3,5,R,ugm-3
02-01-1994,12:00,0.9,R,mgm-3,15,R,ugm-3,40,R,ugm-3,63,R,ugm-3,38,R,ugm-3,5,R,ugm-3
02-01-1994,13:00,0.9,R,mgm-3,16,R,ugm-3,44,R,ugm-3,69,R,ugm-3,36,R,ugm-3,5,R,ugm-3
02-01-1994,14:00,0.9,R,mgm-3,15,R,ugm-3,42,R,ugm-3,65,R,ugm-3,32,R,ugm-3,5,R,ugm-3
02-01-1994,15:00,1.0,R,mgm-3,16,R,ugm-3,55,R,ugm-3,80,R,ugm-3,22,R,ugm-3,8,R,ugm-3
02-01-1994,16:00,1.4,R,mgm-3,31,R,ugm-3,69,R,ugm-3,117,R,ugm-3,10,R,ugm-3,8,R,ugm-3
02-01-1994,17:00,1.4,R,mgm-3,30,R,ugm-3,69,R,ugm-3,115,R,ugm-3,8,R,ugm-3,5,R,ugm-3
02-01-1994,18:00,1.4,R,mgm-3,35,R,ugm-3,73,R,ugm-3,126,R,ugm-3,8,R,ugm-3,8,R,ugm-3
02-01-1994,19:00,1.3,R,mgm-3,28,R,ugm-3,69,R,ugm-3,111,R,ugm-3,10,R,ugm-3,5,R,ugm-3
02-01-1994,20:00,1.3,R,mgm-3,29,R,ugm-3,71,R,ugm-3,115,R,ugm-3,6,R,ugm-3,5,R,ugm-3
02-01-1994,21:00,1.3,R,mgm-3,36,R,ugm-3,69,R,ugm-3,124,R,ugm-3,4,R,ugm-3,5,R,ugm-3
02-01-1994,22:00,1.0,R,mgm-3,21,R,ugm-3,59,R,ugm-3,92,R,ugm-3,8,R,ugm-3,5,R,ugm-3
02-01-1994,23:00,1.0,R,mgm-3,10,R,ugm-3,53,R,ugm-3,69,R,ugm-3,14,R,ugm-3,5,R,ugm-3
02-01-1994,24:00,0.9,R,mgm-3,13,R,ugm-3,48,R,ugm-3,67,R,ugm-3,16,R,ugm-3,5,R,ugm-3
03-01-1994,01:00,0.9,R,mgm-3,11,R,ugm-3,59,R,ugm-3,76,R,ugm-3,16,R,ugm-3,8,R,ugm-3
03-01-1994,02:00,0.7,R,mgm-3,6,R,ugm-3,50,R,ugm-3,59,R,ugm-3,20,R,ugm-3,5,R,ugm-3
03-01-1994,03:00,0.6,R,mgm-3,4,R,ugm-3,38,R,ugm-3,44,R,ugm-3,32,R,ugm-3,5,R,ugm-3
03-01-1994,04:00,0.6,R,mgm-3,4,R,ugm-3,40,R,ugm-3,46,R,ugm-3,32,R,ugm-3,3,R,ugm-3
03-01-1994,05:00,0.7,R,mgm-3,4,R,ugm-3,44,R,ugm-3,50,R,ugm-3,24,R,ugm-3,8,R,ugm-3
03-01-1994,06:00,0.7,R,mgm-3,11,R,ugm-3,46,R,ugm-3,63,R,ugm-3,18,R,ugm-3,11,R,ugm-3
03-01-1994,07:00,0.7,R,mgm-3,15,R,ugm-3,67,R,ugm-3,90,R,ugm-3,16,R,ugm-3,8,R,ugm-3
03-01-1994,08:00,0.9,R,mgm-3,20,R,ugm-3,71,R,ugm-3,101,R,ugm-3,14,R,ugm-3,5,R,ugm-3
03-01-1994,09:00,0.8,R,mgm-3,18,R,ugm-3,61,R,ugm-3,88,R,ugm-3,14,R,ugm-3,5,R,ugm-3
03-01-1994,10:00,0.8,R,mgm-3,19,R,ugm-3,57,R,ugm-3,86,R,ugm-3,20,R,ugm-3,5,R,ugm-3
03-01-1994,11:00,0.9,R,mgm-3,21,R,ugm-3,57,R,ugm-3,90,R,ugm-3,26,R,ugm-3,3,R,ugm-3
03-01-1994,12:00,0.9,R,mgm-3,24,R,ugm-3,53,R,ugm-3,90,R,ugm-3,32,R,ugm-3,3,R,ugm-3
03-01-1994,13:00,1.0,R,mgm-3,28,R,ugm-3,69,R,ugm-3,111,R,ugm-3,24,R,ugm-3,5,R,ugm-3
03-01-1994,14:00,1.3,R,mgm-3,39,R,ugm-3,84,R,ugm-3,143,R,ugm-3,12,R,ugm-3,5,R,ugm-3
03-01-1994,15:00,1.6,R,mgm-3,51,R,ugm-3,90,R,ugm-3,168,R,ugm-3,6,R,ugm-3,8,R,ugm-3
03-01-1994,16:00,1.2,R,mgm-3,25,R,ugm-3,71,R,ugm-3,109,R,ugm-3,16,R,ugm-3,8,R,ugm-3
03-01-1994,17:00,0.7,R,mgm-3,10,R,ugm-3,48,R,ugm-3,63,R,ugm-3,40,R,ugm-3,8,R,ugm-3
03-01-1994,18:00,0.8,R,mgm-3,13,R,ugm-3,46,R,ugm-3,65,R,ugm-3,38,R,ugm-3,5,R,ugm-3
03-01-1994,19:00,0.9,R,mgm-3,13,R,ugm-3,48,R,ugm-3,67,R,ugm-3,38,R,ugm-3,3,R,ugm-3
03-01-1994,20:00,0.9,R,mgm-3,13,R,ugm-3,53,R,ugm-3,73,R,ugm-3,34,R,ugm-3,3,R,ugm-3
03-01-1994,21:00,1.0,R,mgm-3,18,R,ugm-3,65,R,ugm-3,92,R,ugm-3,22,R,ugm-3,3,R,ugm-3
03-01-1994,22:00,0.8,R,mgm-3,10,R,ugm-3,52,R,ugm-3,67,R,ugm-3,30,R,ugm-3,3,R,ugm-3
03-01-1994,23:00,1.0,R,mgm-3,10,R,ugm-3,53,R,ugm-3,69,R,ugm-3,30,R,ugm-3,3,R,ugm-3
03-01-1994,24:00,0.9,R,mgm-3,9,R,ugm-3,61,R,ugm-3,74,R,ugm-3,24,R,ugm-3,5,R,ugm-3
04-01-1994,01:00,0.8,R,mgm-3,6,R,ugm-3,29,R,ugm-3,38,R,ugm-3,44,R,ugm-3,3,R,ugm-3
04-01-1994,02:00,0.7,R,mgm-3,6,R,ugm-3,17,R,ugm-3,27,R,ugm-3,56,R,ugm-3,3,R,ugm-3
04-01-1994,03:00,0.6,R,mgm-3,5,R,ugm-3,15,R,ugm-3,23,R,ugm-3,54,R,ugm-3,5,R,ugm-3
04-01-1994,04:00,0.5,R,mgm-3,5,R,ugm-3,17,R,ugm-3,25,R,ugm-3,58,R,ugm-3,5,R,ugm-3
04-01-1994,05:00,0.6,R,mgm-3,6,R,ugm-3,21,R,ugm-3,31,R,ugm-3,54,R,ugm-3,5,R,ugm-3
04-01-1994,06:00,0.7,R,mgm-3,8,R,ugm-3,25,R,ugm-3,36,R,ugm-3,52,R,ugm-3,3,R,ugm-3
04-01-1994,07:00,0.7,R,mgm-3,13,R,ugm-3,46,R,ugm-3,65,R,ugm-3,38,R,ugm-3,5,R,ugm-3
04-01-1994,08:00,1.2,R,mgm-3,34,R,ugm-3,76,R,ugm-3,128,R,ugm-3,16,R,ugm-3,5,R,ugm-3
04-01-1994,09:00,1.6,R,mgm-3,59,R,ugm-3,84,R,ugm-3,174,R,ugm-3,14,R,ugm-3,8,R,ugm-3
04-01-1994,10:00,2.1,R,mgm-3,90,R,ugm-3,101,R,ugm-3,239,R,ugm-3,10,R,ugm-3,11,R,ugm-3
04-01-1994,11:00,1.0,R,mgm-3,39,R,ugm-3,76,R,ugm-3,136,R,ugm-3,16,R,ugm-3,5,R,ugm-3
04-01-1994,12:00,1.6,R,mgm-3,80,R,ugm-3,90,R,ugm-3,212,R,ugm-3,12,R,ugm-3,11,R,ugm-3
04-01-1994,13:00,1.5,R,mgm-3,59,R,ugm-3,84,R,ugm-3,174,R,ugm-3,12,R,ugm-3,8,R,ugm-3
04-01-1994,14:00,1.3,R,mgm-3,55,R,ugm-3,78,R,ugm-3,162,R,ugm-3,14,R,ugm-3,8,R,ugm-3
04-01-1994,15:00,1.3,R,mgm-3,59,R,ugm-3,78,R,ugm-3,168,R,ugm-3,12,R,ugm-3,24,R,ugm-3
04-01-1994,16:00,1.4,R,mgm-3,69,R,ugm-3,76,R,ugm-3,181,R,ugm-3,6,R,ugm-3,16,R,ugm-3
04-01-1994,17:00,1.5,R,mgm-3,79,R,ugm-3,84,R,ugm-3,204,R,ugm-3,8,R,ugm-3,19,R,ugm-3
04-01-1994,18:00,1.5,R,mgm-3,76,R,ugm-3,86,R,ugm-3,202,R,ugm-3,8,R,ugm-3,27,R,ugm-3
04-01-1994,19:00,2.1,R,mgm-3,100,R,ugm-3,88,R,ugm-3,241,R,ugm-3,6,R,ugm-3,29,R,ugm-3
04-01-1994,20:00,2.2,R,mgm-3,121,R,ugm-3,88,R,ugm-3,273,R,ugm-3,6,R,ugm-3,19,R,ugm-3
04-01-1994,21:00,2.0,R,mgm-3,100,R,ugm-3,84,R,ugm-3,237,R,ugm-3,8,R,ugm-3,16,R,ugm-3
04-01-1994,22:00,1.7,R,mgm-3,100,R,ugm-3,82,R,ugm-3,235,R,ugm-3,6,R,ugm-3,16,R,ugm-3
04-01-1994,23:00,1.5,R,mgm-3,61,R,ugm-3,73,R,ugm-3,166,R,ugm-3,8,R,ugm-3,13,R,ugm-3
04-01-1994,24:00,1.2,R,mgm-3,31,R,ugm-3,67,R,ugm-3,115,R,ugm-3,8,R,ugm-3,11,R,ugm-3
05-01-1994,01:00,1.0,R,mgm-3,13,R,ugm-3,55,R,ugm-3,74,R,ugm-3,8,R,ugm-3,11,R,ugm-3
05-01-1994,02:00,0.7,R,mgm-3,4,R,ugm-3,46,R,ugm-3,52,R,ugm-3,18,R,ugm-3,11,R,ugm-3
05-01-1994,03:00,0.6,R,mgm-3,4,R,ugm-3,42,R,ugm-3,48,R,ugm-3,24,R,ugm-3,11,R,ugm-3
05-01-1994,04:00,0.5,R,mgm-3,8,R,ugm-3,27,R,ugm-3,38,R,ugm-3,34,R,ugm-3,3,R,ugm-3
05-01-1994,05:00,0.5,R,mgm-3,4,R,ugm-3,21,R,ugm-3,27,R,ugm-3,50,R,ugm-3,3,R,ugm-3
05-01-1994,06:00,0.5,R,mgm-3,6,R,ugm-3,29,R,ugm-3,38,R,ugm-3,40,R,ugm-3,3,R,ugm-3
05-01-1994,07:00,0.6,R,mgm-3,8,R,ugm-3,34,R,ugm-3,46,R,ugm-3,36,R,ugm-3,3,R,ugm-3
05-01-1994,08:00,0.9,R,mgm-3,20,R,ugm-3,53,R,ugm-3,84,R,ugm-3,26,R,ugm-3,5,R,ugm-3
05-01-1994,09:00,1.2,R,mgm-3,53,R,ugm-3,73,R,ugm-3,153,R,ugm-3,20,R,ugm-3,11,R,ugm-3
05-01-1994,10:00,0.9,R,mgm-3,26,R,ugm-3,59,R,ugm-3,99,R,ugm-3,28,R,ugm-3,8,R,ugm-3
05-01-1994,11:00,1.0,R,mgm-3,40,R,ugm-3,63,R,ugm-3,124,R,ugm-3,18,R,ugm-3,8,R,ugm-3
05-01-1994,12:00,0.7,R,mgm-3,18,R,ugm-3,48,R,ugm-3,74,R,ugm-3,28,R,ugm-3,8,R,ugm-3
05-01-1994,13:00,0.8,R,mgm-3,30,R,ugm-3,57,R,ugm-3,103,R,ugm-3,24,R,ugm-3,8,R,ugm-3
05-01-1994,14:00,0.7,R,mgm-3,28,R,ugm-3,55,R,ugm-3,97,R,ugm-3,26,R,ugm-3,8,R,ugm-3
05-01-1994,15:00,0.6,R,mgm-3,24,R,ugm-3,55,R,ugm-3,92,R,ugm-3,24,R,ugm-3,8,R,ugm-3
05-01-1994,16:00,0.8,R,mgm-3,26,R,ugm-3,63,R,ugm-3,103,R,ugm-3,22,R,ugm-3,5,R,ugm-3
05-01-1994,17:00,1.2,R,mgm-3,39,R,ugm-3,76,R,ugm-3,136,R,ugm-3,14,R,ugm-3,8,R,ugm-3
05-01-1994,18:00,1.0,R,mgm-3,33,R,ugm-3,74,R,ugm-3,124,R,ugm-3,10,R,ugm-3,8,R,ugm-3
05-01-1994,19:00,1.2,R,mgm-3,24,R,ugm-3,73,R,ugm-3,109,R,ugm-3,8,R,ugm-3,5,R,ugm-3
05-01-1994,20:00,1.6,R,mgm-3,59,R,ugm-3,84,R,ugm-3,174,R,ugm-3,16,R,ugm-3,11,R,ugm-3
05-01-1994,21:00,1.6,R,mgm-3,58,R,ugm-3,84,R,ugm-3,172,R,ugm-3,18,R,ugm-3,16,R,ugm-3
05-01-1994,22:00,1.7,R,mgm-3,76,R,ugm-3,88,R,ugm-3,204,R,ugm-3,4,R,ugm-3,16,R,ugm-3
05-01-1994,23:00,2.2,R,mgm-3,88,R,ugm-3,88,R,ugm-3,222,R,ugm-3,4,R,ugm-3,13,R,ugm-3
05-01-1994,24:00,1.7,R,mgm-3,54,R,ugm-3,80,R,ugm-3,162,R,ugm-3,4,R,ugm-3,13,R,ugm-3
06-01-1994,01:00,0.8,R,mgm-3,16,R,ugm-3,61,R,ugm-3,86,R,ugm-3,14,R,ugm-3,5,R,ugm-3
06-01-1994,02:00,0.6,R,mgm-3,1,R,ugm-3,17,R,ugm-3,19,R,ugm-3,54,R,ugm-3,5,R,ugm-3
06-01-1994,03:00,0.6,R,mgm-3,1,R,ugm-3,15,R,ugm-3,17,R,ugm-3,56,R,ugm-3,5,R,ugm-3
06-01-1994,04:00,0.6,R,mgm-3,1,R,ugm-3,19,R,ugm-3,21,R,ugm-3,54,R,ugm-3,3,R,ugm-3
06-01-1994,05:00,0.6,R,mgm-3,6,R,ugm-3,31,R,ugm-3,40,R,ugm-3,46,R,ugm-3,5,R,ugm-3
06-01-1994,06:00,0.7,R,mgm-3,5,R,ugm-3,48,R,ugm-3,55,R,ugm-3,28,R,ugm-3,8,R,ugm-3
06-01-1994,07:00,0.9,R,mgm-3,35,R,ugm-3,78,R,ugm-3,132,R,ugm-3,8,R,ugm-3,11,R,ugm-3
06-01-1994,08:00,1.6,R,mgm-3,106,R,ugm-3,97,R,ugm-3,260,R,ugm-3,4,R,ugm-3,19,R,ugm-3
06-01-1994,09:00,3.4,R,mgm-3,231,R,ugm-3,120,R,ugm-3,474,R,ugm-3,4,R,ugm-3,21,R,ugm-3
06-01-1994,10:00,4.6,R,mgm-3,348,R,ugm-3,160,R,ugm-3,691,R,ugm-3,10,R,ugm-3,29,R,ugm-3
06-01-1994,11:00,3.1,R,mgm-3,201,R,ugm-3,136,R,ugm-3,443,R,ugm-3,8,R,ugm-3,29,R,ugm-3
06-01-1994,12:00,2.0,R,mgm-3,99,R,ugm-3,107,R,ugm-3,258,R,ugm-3,6,R,ugm-3,19,R,ugm-3
06-01-1994,13:00,3.2,R,mgm-3,203,R,ugm-3,130,R,ugm-3,439,R,ugm-3,8,R,ugm-3,35,R,ugm-3
06-01-1994,14:00,3.2,R,mgm-3,271,R,ugm-3,136,R,ugm-3,550,R,ugm-3,8,R,ugm-3,45,R,ugm-3
06-01-1994,15:00,2.8,R,mgm-3,246,R,ugm-3,126,R,ugm-3,502,R,ugm-3,6,R,ugm-3,40,R,ugm-3
06-01-1994,16:00,2.3,R,mgm-3,211,R,ugm-3,139,R,ugm-3,462,R,ugm-3,8,R,ugm-3,37,R,ugm-3
06-01-1994,17:00,2.0,R,mgm-3,138,R,ugm-3,115,R,ugm-3,325,R,ugm-3,6,R,ugm-3,24,R,ugm-3
06-01-1994,18:00,1.7,R,mgm-3,91,R,ugm-3,97,R,ugm-3,237,R,ugm-3,6,R,ugm-3,24,R,ugm-3
06-01-1994,19:00,1.7,R,mgm-3,63,R,ugm-3,86,R,ugm-3,181,R,ugm-3,6,R,ugm-3,19,R,ugm-3
06-01-1994,20:00,1.7,R,mgm-3,75,R,ugm-3,74,R,ugm-3,189,R,ugm-3,4,R,ugm-3,13,R,ugm-3
06-01-1994,21:00,2.2,R,mgm-3,106,R,ugm-3,74,R,ugm-3,237,R,ugm-3,4,R,ugm-3,24,R,ugm-3
06-01-1994,22:00,2.0,R,mgm-3,79,R,ugm-3,74,R,ugm-3,195,R,ugm-3,6,R,ugm-3,21,R,ugm-3
06-01-1994,23:00,1.7,R,mgm-3,74,R,ugm-3,76,R,ugm-3,189,R,ugm-3,6,R,ugm-3,24,R,ugm-3
06-01-1994,24:00,2.1,R,mgm-3,98,R,ugm-3,84,R,ugm-3,233,R,ugm-3,4,R,ugm-3,35,R,ugm-3
07-01-1994,01:00,1.9,R,mgm-3,70,R,ugm-3,86,R,ugm-3,193,R,ugm-3,6,R,ugm-3,32,R,ugm-3
07-01-1994,02:00,0.9,R,mgm-3,36,R,ugm-3,71,R,ugm-3,126,R,ugm-3,6,R,ugm-3,21,R,ugm-3
07-01-1994,03:00,0.9,R,mgm-3,30,R,ugm-3,65,R,ugm-3,111,R,ugm-3,6,R,ugm-3,19,R,ugm-3
07-01-1994,04:00,0.8,R,mgm-3,21,R,ugm-3,63,R,ugm-3,96,R,ugm-3,4,R,ugm-3,16,R,ugm-3
07-01-1994,05:00,0.7,R,mgm-3,10,R,ugm-3,57,R,ugm-3,73,R,ugm-3,10,R,ugm-3,16,R,ugm-3
07-01-1994,06:00,0.6,R,mgm-3,14,R,ugm-3,55,R,ugm-3,76,R,ugm-3,10,R,ugm-3,13,R,ugm-3
07-01-1994,07:00,0.8,R,mgm-3,43,R,ugm-3,65,R,ugm-3,130,R,ugm-3,4,R,ugm-3,19,R,ugm-3
07-01-1994,08:00,1.3,R,mgm-3,93,R,ugm-3,73,R,ugm-3,214,R,ugm-3,4,R,ugm-3,21,R,ugm-3
07-01-1994,09:00,2.0,R,mgm-3,151,R,ugm-3,88,R,ugm-3,319,R,ugm-3,6,R,ugm-3,29,R,ugm-3
07-01-1994,10:00,2.6,R,mgm-3,179,R,ugm-3,97,R,ugm-3,371,R,ugm-3,6,R,ugm-3,32,R,ugm-3
07-01-1994,11:00,1.5,R,mgm-3,99,R,ugm-3,82,R,ugm-3,233,R,ugm-3,8,R,ugm-3,21,R,ugm-3
07-01-1994,12:00,1.7,R,mgm-3,126,R,ugm-3,86,R,ugm-3,279,R,ugm-3,6,R,ugm-3,24,R,ugm-3
07-01-1994,13:00,2.1,R,mgm-3,155,R,ugm-3,92,R,ugm-3,329,R,ugm-3,8,R,ugm-3,37,R,ugm-3
07-01-1994,14:00,1.6,R,mgm-3,125,R,ugm-3,80,R,ugm-3,271,R,ugm-3,10,R,ugm-3,35,R,ugm-3
07-01-1994,15:00,1.5,R,mgm-3,116,R,ugm-3,80,R,ugm-3,258,R,ugm-3,6,R,ugm-3,40,R,ugm-3
07-01-1994,16:00,2.0,R,mgm-3,153,R,ugm-3,92,R,ugm-3,325,R,ugm-3,8,R,ugm-3,32,R,ugm-3
07-01-1994,17:00,2.3,R,mgm-3,206,R,ugm-3,101,R,ugm-3,416,R,ugm-3,10,R,ugm-3,40,R,ugm-3
07-01-1994,18:00,2.7,R,mgm-3,240,R,ugm-3,97,R,ugm-3,464,R,ugm-3,6,R,ugm-3,35,R,ugm-3
07-01-1994,19:00,3.1,R,mgm-3,276,R,ugm-3,97,R,ugm-3,520,R,ugm-3,6,R,ugm-3,56,R,ugm-3
07-01-1994,20:00,4.3,R,mgm-3,340,R,ugm-3,107,R,ugm-3,626,R,ugm-3,8,R,ugm-3,45,R,ugm-3
07-01-1994,21:00,5.5,R,mgm-3,438,R,ugm-3,117,R,ugm-3,785,R,ugm-3,8,R,ugm-3,59,R,ugm-3
07-01-1994,22:00,4.1,R,mgm-3,381,R,ugm-3,111,R,ugm-3,693,R,ugm-3,6,R,ugm-3,56,R,ugm-3
07-01-1994,23:00,4.2,R,mgm-3,395,R,ugm-3,117,R,ugm-3,720,R,ugm-3,8,R,ugm-3,64,R,ugm-3
07-01-1994,24:00,3.8,R,mgm-3,361,R,ugm-3,111,R,ugm-3,663,R,ugm-3,8,R,ugm-3,72,R,ugm-3
08-01-1994,01:00,4.8,R,mgm-3,425,R,ugm-3,113,R,ugm-3,762,R,ugm-3,4,R,ugm-3,40,R,ugm-3
08-01-1994,02:00,3.7,R,mgm-3,378,R,ugm-3,105,R,ugm-3,682,R,ugm-3,6,R,ugm-3,37,R,ugm-3
08-01-1994,03:00,3.7,R,mgm-3,363,R,ugm-3,99,R,ugm-3,653,R,ugm-3,8,R,ugm-3,32,R,ugm-3
08-01-1994,04:00,3.0,R,mgm-3,295,R,ugm-3,92,R,ugm-3,542,R,ugm-3,6,R,ugm-3,35,R,ugm-3
08-01-1994,05:00,2.7,R,mgm-3,263,R,ugm-3,86,R,ugm-3,487,R,ugm-3,6,R,ugm-3,29,R,ugm-3
08-01-1994,06:00,2.0,R,mgm-3,206,R,ugm-3,82,R,ugm-3,397,R,ugm-3,6,R,ugm-3,35,R,ugm-3
08-01-1994,07:00,2.6,R,mgm-3,288,R,ugm-3,97,R,ugm-3,537,R,ugm-3,6,R,ugm-3,37,R,ugm-3
08-01-1994,08:00,3.5,R,mgm-3,391,R,ugm-3,113,R,ugm-3,711,R,ugm-3,8,R,ugm-3,35,R,ugm-3
08-01-1994,09:00,4.2,R,mgm-3,461,R,ugm-3,134,R,ugm-3,838,R,ugm-3,8,R,ugm-3,37,R,ugm-3
08-01-1994,10:00,6.6,R,mgm-3,708,R,ugm-3,187,R,ugm-3,1268,R,ugm-3,10,R,ugm-3,51,R,ugm-3
08-01-1994,11:00,5.3,R,mgm-3,471,R,ugm-3,164,R,ugm-3,884,R,ugm-3,8,R,ugm-3,61,R,ugm-3
08-01-1994,12:00,5.2,R,mgm-3,409,R,ugm-3,166,R,ugm-3,791,R,ugm-3,8,R,ugm-3,64,R,ugm-3
08-01-1994,13:00,5.2,R,mgm-3,368,R,ugm-3,159,R,ugm-3,720,R,ugm-3,6,R,ugm-3,64,R,ugm-3
08-01-1994,14:00,5.3,R,mgm-3,369,R,ugm-3,147,R,ugm-3,711,R,ugm-3,6,R,ugm-3,53,R,ugm-3
08-01-1994,15:00,3.0,R,mgm-3,214,R,ugm-3,103,R,ugm-3,430,R,ugm-3,6,R,ugm-3,32,R,ugm-3
08-01-1994,16:00,1.6,R,mgm-3,119,R,ugm-3,71,R,ugm-3,252,R,ugm-3,4,R,ugm-3,19,R,ugm-3
08-01-1994,17:00,1.9,R,mgm-3,120,R,ugm-3,69,R,ugm-3,252,R,ugm-3,4,R,ugm-3,16,R,ugm-3
08-01-1994,18:00,1.3,R,mgm-3,75,R,ugm-3,67,R,ugm-3,181,R,ugm-3,6,R,ugm-3,13,R,ugm-3
08-01-1994,19:00,1.3,R,mgm-3,88,R,ugm-3,67,R,ugm-3,201,R,ugm-3,4,R,ugm-3,13,R,ugm-3
08-01-1994,20:00,0.9,R,mgm-3,65,R,ugm-3,63,R,ugm-3,162,R,ugm-3,6,R,ugm-3,16,R,ugm-3
08-01-1994,21:00,0.5,R,mgm-3,31,R,ugm-3,55,R,ugm-3,103,R,ugm-3,12,R,ugm-3,13,R,ugm-3
08-01-1994,22:00,0.3,R,mgm-3,36,R,ugm-3,69,R,ugm-3,124,R,ugm-3,14,R,ugm-3,13,R,ugm-3
08-01-1994,23:00,0.3,R,mgm-3,85,R,ugm-3,90,R,ugm-3,220,R,ugm-3,12,R,ugm-3,13,R,ugm-3
08-01-1994,24:00,0.2,R,mgm-3,14,R,ugm-3,44,R,ugm-3,65,R,ugm-3,18,R,ugm-3,8,R,ugm-3
09-01-1994,01:00,0.1,R,mgm-3,9,R,ugm-3,31,R,ugm-3,44,R,ugm-3,24,R,ugm-3,5,R,ugm-3
09-01-1994,02:00,0.3,R,mgm-3,6,R,ugm-3,19,R,ugm-3,29,R,ugm-3,28,R,ugm-3,5,R,ugm-3
09-01-1994,03:00,0.3,R,mgm-3,4,R,ugm-3,17,R,ugm-3,23,R,ugm-3,38,R,ugm-3,5,R,ugm-3
09-01-1994,04:00,0.3,R,mgm-3,3,R,ugm-3,15,R,ugm-3,19,R,ugm-3,34,R,ugm-3,5,R,ugm-3
09-01-1994,05:00,0.3,R,mgm-3,3,R,ugm-3,15,R,ugm-3,19,R,ugm-3,26,R,ugm-3,5,R,ugm-3
09-01-1994,06:00,0.3,R,mgm-3,8,R,ugm-3,25,R,ugm-3,36,R,ugm-3,24,R,ugm-3,5,R,ugm-3
09-01-1994,07:00,0.6,R,mgm-3,16,R,ugm-3,50,R,ugm-3,74,R,ugm-3,10,R,ugm-3,5,R,ugm-3
09-01-1994,08:00,0.8,R,mgm-3,34,R,ugm-3,59,R,ugm-3,111,R,ugm-3,8,R,ugm-3,5,R,ugm-3
09-01-1994,09:00,0.7,R,mgm-3,33,R,ugm-3,57,R,ugm-3,107,R,ugm-3,6,R,ugm-3,5,R,ugm-3
09-01-1994,10:00,0.8,R,mgm-3,25,R,ugm-3,52,R,ugm-3,90,R,ugm-3,10,R,ugm-3,5,R,ugm-3
09-01-1994,11:00,0.9,R,mgm-3,30,R,ugm-3,57,R,ugm-3,103,R,ugm-3,10,R,ugm-3,8,R,ugm-3
09-01-1994,12:00,0.8,R,mgm-3,19,R,ugm-3,52,R,ugm-3,80,R,ugm-3,18,R,ugm-3,8,R,ugm-3
09-01-1994,13:00,0.8,R,mgm-3,19,R,ugm-3,48,R,ugm-3,76,R,ugm-3,20,R,ugm-3,8,R,ugm-3
09-01-1994,14:00,0.6,R,mgm-3,13,R,ugm-3,34,R,ugm-3,53,R,ugm-3,26,R,ugm-3,5,R,ugm-3
09-01-1994,15:00,0.9,R,mgm-3,19,R,ugm-3,48,R,ugm-3,76,R,ugm-3,20,R,ugm-3,5,R,ugm-3
09-01-1994,16:00,0.8,R,mgm-3,19,R,ugm-3,44,R,ugm-3,73,R,ugm-3,24,R,ugm-3,5,R,ugm-3
09-01-1994,17:00,0.7,R,mgm-3,13,R,ugm-3,42,R,ugm-3,61,R,ugm-3,22,R,ugm-3,8,R,ugm-3
09-01-1994,18:00,0.7,R,mgm-3,14,R,ugm-3,38,R,ugm-3,59,R,ugm-3,24,R,ugm-3,11,R,ugm-3
09-01-1994,19:00,0.8,R,mgm-3,14,R,ugm-3,40,R,ugm-3,61,R,ugm-3,24,R,ugm-3,8,R,ugm-3
09-01-1994,20:00,0.7,R,mgm-3,10,R,ugm-3,32,R,ugm-3,48,R,ugm-3,30,R,ugm-3,8,R,ugm-3
09-01-1994,21:00,0.6,R,mgm-3,10,R,ugm-3,32,R,ugm-3,48,R,ugm-3,30,R,ugm-3,5,R,ugm-3
09-01-1994,22:00,0.6,R,mgm-3,14,R,ugm-3,38,R,ugm-3,59,R,ugm-3,26,R,ugm-3,5,R,ugm-3
09-01-1994,23:00,0.6,R,mgm-3,41,R,ugm-3,53,R,ugm-3,117,R,ugm-3,24,R,ugm-3,5,R,ugm-3
09-01-1994,24:00,0.5,R,mgm-3,9,R,ugm-3,38,R,ugm-3,52,R,ugm-3,24,R,ugm-3,5,R,ugm-3
10-01-1994,01:00,0.1,R,mgm-3,3,R,ugm-3,42,R,ugm-3,46,R,ugm-3,46,R,ugm-3,3,R,ugm-3
10-01-1994,02:00,0.6,R,mgm-3,4,R,ugm-3,57,R,ugm-3,63,R,ugm-3,30,R,ugm-3,3,R,ugm-3
10-01-1994,03:00,0.7,R,mgm-3,8,R,ugm-3,63,R,ugm-3,74,R,ugm-3,30,R,ugm-3,5,R,ugm-3
10-01-1994,04:00,0.7,R,mgm-3,6,R,ugm-3,61,R,ugm-3,71,R,ugm-3,28,R,ugm-3,5,R,ugm-3
10-01-1994,05:00,0.6,R,mgm-3,5,R,ugm-3,57,R,ugm-3,65,R,ugm-3,32,R,ugm-3,3,R,ugm-3
10-01-1994,06:00,0.7,R,mgm-3,13,R,ugm-3,71,R,ugm-3,90,R,ugm-3,22,R,ugm-3,3,R,ugm-3
10-01-1994,07:00,1.0,R,mgm-3,40,R,ugm-3,101,R,ugm-3,162,R,ugm-3,6,R,ugm-3,5,R,ugm-3
10-01-1994,08:00,1.7,R,mgm-3,86,R,ugm-3,109,R,ugm-3,241,R,ugm-3,4,R,ugm-3,8,R,ugm-3
10-01-1994,09:00,3.2,R,mgm-3,185,R,ugm-3,124,R,ugm-3,407,R,ugm-3,4,R,ugm-3,13,R,ugm-3
10-01-1994,10:00,4.5,R,mgm-3,304,R,ugm-3,162,R,ugm-3,626,R,ugm-3,4,R,ugm-3,21,R,ugm-3
10-01-1994,11:00,2.4,R,mgm-3,126,R,ugm-3,120,R,ugm-3,313,R,ugm-3,4,R,ugm-3,13,R,ugm-3
10-01-1994,12:00,1.7,R,mgm-3,89,R,ugm-3,105,R,ugm-3,241,R,ugm-3,8,R,ugm-3,11,R,ugm-3
10-01-1994,13:00,,,,,,,,,,,,,,,,,,
10-01-1994,14:00,1.9,R,mgm-3,99,R,ugm-3,113,R,ugm-3,264,R,ugm-3,6,R,ugm-3,13,R,ugm-3
10-01-1994,15:00,2.1,R,mgm-3,100,R,ugm-3,101,R,ugm-3,254,R,ugm-3,4,R,ugm-3,13,R,ugm-3
10-01-1994,16:00,1.5,R,mgm-3,80,R,ugm-3,103,R,ugm-3,225,R,ugm-3,8,R,ugm-3,13,R,ugm-3
10-01-1994,17:00,2.1,R,mgm-3,118,R,ugm-3,111,R,ugm-3,290,R,ugm-3,6,R,ugm-3,16,R,ugm-3
10-01-1994,18:00,1.6,R,mgm-3,70,R,ugm-3,90,R,ugm-3,197,R,ugm-3,4,R,ugm-3,11,R,ugm-3
10-01-1994,19:00,1.9,R,mgm-3,71,R,ugm-3,90,R,ugm-3,199,R,ugm-3,4,R,ugm-3,8,R,ugm-3
10-01-1994,20:00,2.0,R,mgm-3,84,R,ugm-3,92,R,ugm-3,220,R,ugm-3,2,R,ugm-3,8,R,ugm-3
10-01-1994,21:00,1.6,R,mgm-3,65,R,ugm-3,88,R,ugm-3,187,R,ugm-3,4,R,ugm-3,8,R,ugm-3
10-01-1994,22:00,1.0,R,mgm-3,26,R,ugm-3,78,R,ugm-3,118,R,ugm-3,6,R,ugm-3,8,R,ugm-3
10-01-1994,23:00,0.9,R,mgm-3,15,R,ugm-3,73,R,ugm-3,96,R,ugm-3,10,R,ugm-3,5,R,ugm-3
10-01-1994,24:00,0.8,R,mgm-3,11,R,ugm-3,65,R,ugm-3,82,R,ugm-3,16,R,ugm-3,5,R,ugm-3
11-01-1994,01:00,0.7,R,mgm-3,8,R,ugm-3,63,R,ugm-3,74,R,ugm-3,14,R,ugm-3,5,R,ugm-3
11-01-1994,02:00,0.6,R,mgm-3,4,R,ugm-3,42,R,ugm-3,48,R,ugm-3,28,R,ugm-3,5,R,ugm-3
11-01-1994,03:00,0.5,R,mgm-3,3,R,ugm-3,44,R,ugm-3,48,R,ugm-3,30,R,ugm-3,11,R,ugm-3
11-01-1994,04:00,0.6,R,mgm-3,4,R,ugm-3,38,R,ugm-3,44,R,ugm-3,26,R,ugm-3,5,R,ugm-3
11-01-1994,05:00,0.6,R,mgm-3,4,R,ugm-3,52,R,ugm-3,57,R,ugm-3,18,R,ugm-3,8,R,ugm-3
11-01-1994,06:00,0.9,R,mgm-3,28,R,ugm-3,69,R,ugm-3,111,R,ugm-3,6,R,ugm-3,11,R,ugm-3
11-01-1994,07:00,1.0,R,mgm-3,41,R,ugm-3,78,R,ugm-3,141,R,ugm-3,2,R,ugm-3,8,R,ugm-3
11-01-1994,08:00,2.0,R,mgm-3,101,R,ugm-3,86,R,ugm-3,241,R,ugm-3,4,R,ugm-3,11,R,ugm-3
11-01-1994,09:00,3.2,R,mgm-3,159,R,ugm-3,101,R,ugm-3,344,R,ugm-3,4,R,ugm-3,13,R,ugm-3
11-01-1994,10:00,3.6,R,mgm-3,179,R,ugm-3,105,R,ugm-3,378,R,ugm-3,4,R,ugm-3,16,R,ugm-3
11-01-1994,11:00,2.0,R,mgm-3,91,R,ugm-3,92,R,ugm-3,231,R,ugm-3,6,R,ugm-3,21,R,ugm-3
11-01-1994,12:00,1.2,R,mgm-3,43,R,ugm-3,69,R,ugm-3,134,R,ugm-3,12,R,ugm-3,13,R,ugm-3
11-01-1994,13:00,0.9,R,mgm-3,29,R,ugm-3,57,R,ugm-3,101,R,ugm-3,20,R,ugm-3,11,R,ugm-3
11-01-1994,14:00,0.8,R,mgm-3,36,R,ugm-3,63,R,ugm-3,118,R,ugm-3,24,R,ugm-3,11,R,ugm-3
11-01-1994,15:00,0.7,R,mgm-3,21,R,ugm-3,55,R,ugm-3,88,R,ugm-3,30,R,ugm-3,5,R,ugm-3
11-01-1994,16:00,0.8,R,mgm-3,20,R,ugm-3,57,R,ugm-3,88,R,ugm-3,22,R,ugm-3,5,R,ugm-3
11-01-1994,17:00,0.9,R,mgm-3,25,R,ugm-3,61,R,ugm-3,99,R,ugm-3,16,R,ugm-3,3,R,ugm-3
11-01-1994,18:00,1.0,R,mgm-3,23,R,ugm-3,65,R,ugm-3,99,R,ugm-3,14,R,ugm-3,3,R,ugm-3
11-01-1994,19:00,1.3,R,mgm-3,24,R,ugm-3,73,R,ugm-3,109,R,ugm-3,8,R,ugm-3,5,R,ugm-3
11-01-1994,20:00,1.3,R,mgm-3,26,R,ugm-3,78,R,ugm-3,118,R,ugm-3,6,R,ugm-3,5,R,ugm-3
11-01-1994,21:00,1.0,R,mgm-3,19,R,ugm-3,73,R,ugm-3,101,R,ugm-3,10,R,ugm-3,5,R,ugm-3
11-01-1994,22:00,0.9,R,mgm-3,11,R,ugm-3,63,R,ugm-3,80,R,ugm-3,14,R,ugm-3,5,R,ugm-3
11-01-1994,23:00,0.9,R,mgm-3,14,R,ugm-3,63,R,ugm-3,84,R,ugm-3,14,R,ugm-3,5,R,ugm-3
11-01-1994,24:00,0.7,R,mgm-3,11,R,ugm-3,55,R,ugm-3,73,R,ugm-3,20,R,ugm-3,5,R,ugm-3
12-01-1994,01:00,0.7,R,mgm-3,8,R,ugm-3,55,R,ugm-3,67,R,ugm-3,22,R,ugm-3,5,R,ugm-3
12-01-1994,02:00,0.6,R,mgm-3,4,R,ugm-3,38,R,ugm-3,44,R,ugm-3,32,R,ugm-3,8,R,ugm-3
12-01-1994,03:00,0.6,R,mgm-3,3,R,ugm-3,36,R,ugm-3,40,R,ugm-3,34,R,ugm-3,11,R,ugm-3
12-01-1994,04:00,0.6,R,mgm-3,1,R,ugm-3,36,R,ugm-3,38,R,ugm-3,38,R,ugm-3,8,R,ugm-3
12-01-1994,05:00,0.5,R,mgm-3,3,R,ugm-3,27,R,ugm-3,31,R,ugm-3,42,R,ugm-3,3,R,ugm-3
12-01-1994,06:00,0.6,R,mgm-3,5,R,ugm-3,36,R,ugm-3,44,R,ugm-3,34,R,ugm-3,3,R,ugm-3
12-01-1994,07:00,0.7,R,mgm-3,8,R,ugm-3,46,R,ugm-3,57,R,ugm-3,28,R,ugm-3,3,R,ugm-3
12-01-1994,08:00,0.9,R,mgm-3,20,R,ugm-3,57,R,ugm-3,88,R,ugm-3,16,R,ugm-3,3,R,ugm-3
12-01-1994,09:00,1.3,R,mgm-3,24,R,ugm-3,65,R,ugm-3,101,R,ugm-3,14,R,ugm-3,3,R,ugm-3
12-01-1994,10:00,1.2,R,mgm-3,41,R,ugm-3,71,R,ugm-3,134,R,ugm-3,12,R,ugm-3,3,R,ugm-3
12-01-1994,11:00,0.9,R,mgm-3,28,R,ugm-3,59,R,ugm-3,101,R,ugm-3,16,R,ugm-3,5,R,ugm-3
12-01-1994,12:00,0.9,R,mgm-3,28,R,ugm-3,63,R,ugm-3,105,R,ugm-3,12,R,ugm-3,5,R,ugm-3
12-01-1994,13:00,0.7,R,mgm-3,19,R,ugm-3,55,R,ugm-3,84,R,ugm-3,14,R,ugm-3,8,R,ugm-3
12-01-1994,14:00,0.7,R,mgm-3,14,R,ugm-3,53,R,ugm-3,74,R,ugm-3,18,R,ugm-3,8,R,ugm-3
12-01-1994,15:00,0.6,R,mgm-3,14,R,ugm-3,52,R,ugm-3,73,R,ugm-3,22,R,ugm-3,5,R,ugm-3
12-01-1994,16:00,0.7,R,mgm-3,15,R,ugm-3,55,R,ugm-3,78,R,ugm-3,20,R,ugm-3,5,R,ugm-3
12-01-1994,17:00,0.6,R,mgm-3,10,R,ugm-3,44,R,ugm-3,59,R,ugm-3,34,R,ugm-3,5,R,ugm-3
12-01-1994,18:00,0.7,R,mgm-3,13,R,ugm-3,48,R,ugm-3,67,R,ugm-3,34,R,ugm-3,5,R,ugm-3
12-01-1994,19:00,0.7,R,mgm-3,9,R,ugm-3,48,R,ugm-3,61,R,ugm-3,34,R,ugm-3,5,R,ugm-3